Total_Precipitation_Accumulation
0.00 0.00 0.00 0.00 0.00 0.00 0.00 0.00 0.03 0.03 0.03 0.01 0.00 0.00 0.00 0.00 0.00 0.00 0.00 0.00 0.00 0.00 0.00 0.00 0.00 0.00 0.00 0.01 0.01 0.01 0.02 0.03 0.03 0.03 0.03 0.03 0.04 0.06 0.07 0.08 0.09 0.14 0.21 0.23
0.00 0.00 0.00 0.00 0.00 0.00 0.00 0.00 0.00 0.00 0.00 0.00 0.00 0.01 0.01 0.01 0.02 0.01 0.01 0.02 0.02 0.02 0.02 0.03 0.02 0.03 0.03 0.03 0.04 0.04 0.06 0.08 0.07 0.07 0.07 0.06 0.06 0.06 0.06 0.08 0.10 0.12 0.14 0.18
0.00 0.00 0.00 0.03 0.01 0.00 0.00 0.00 0.00 0.00 0.01 0.01 0.02 0.03 0.05 0.07 0.08 0.08 0.08 0.08 0.07 0.07 0.05 0.04 0.03 0.02 0.02 0.02 0.02 0.03 0.05 0.10 0.10 0.09 0.08 0.05 0.05 0.05 0.05 0.07 0.10 0.12 0.14 0.15
0.00 0.00 0.03 0.03 0.00 0.00 0.00 0.00 0.01 0.03 0.05 0.08 0.12 0.14 0.17 0.22 0.22 0.16 0.10 0.07 0.04 0.03 0.01 0.01 0.00 0.01 0.01 0.01 0.02 0.02 0.03 0.08 0.12 0.12 0.09 0.06 0.06 0.06 0.07 0.08 0.10 0.13 0.15 0.18
0.00 0.00 0.01 0.00 0.00 0.00 0.01 0.03 0.05 0.10 0.17 0.22 0.26 0.26 0.21 0.16 0.12 0.08 0.04 0.02 0.01 0.01 0.01 0.01 0.01 0.01 0.02 0.02 0.03 0.03 0.04 0.06 0.10 0.13 0.12 0.09 0.09 0.10 0.12 0.13 0.14 0.14 0.16 0.19
0.00 0.00 0.01 0.01 0.01 0.05 0.06 0.13 0.18 0.21 0.21 0.16 0.12 0.11 0.08 0.03 0.01 0.01 0.01 0.00 0.01 0.01 0.01 0.02 0.02 0.03 0.03 0.04 0.05 0.06 0.06 0.08 0.11 0.15 0.16 0.13 0.13 0.16 0.17 0.19 0.19 0.18 0.18 0.19
0.00 0.00 0.01 0.02 0.05 0.10 0.17 0.22 0.18 0.13 0.10 0.08 0.07 0.06 0.03 0.01 0.01 0.01 0.00 0.00 0.01 0.01 0.02 0.04 0.06 0.08 0.11 0.13 0.14 0.14 0.14 0.15 0.18 0.20 0.21 0.19 0.19 0.21 0.22 0.23 0.25 0.26 0.25 0.24
0.00 0.02 0.06 0.05 0.06 0.10 0.10 0.08 0.06 0.05 0.04 0.03 0.02 0.01 0.01 0.00 0.01 0.01 0.00 0.00 0.01 0.02 0.02 0.04 0.08 0.13 0.17 0.18 0.18 0.19 0.21 0.21 0.24 0.27 0.25 0.20 0.25 0.31 0.35 0.37 0.36 0.35 0.40 0.37
0.01 0.04 0.03 0.02 0.02 0.03 0.03 0.03 0.03 0.02 0.02 0.01 0.01 0.00 0.00 0.00 0.00 0.00 0.00 0.00 0.00 0.02 0.02 0.04 0.07 0.10 0.13 0.14 0.16 0.17 0.20 0.21 0.26 0.32 0.34 0.33 0.35 0.37 0.44 0.48 0.48 0.46 0.48 0.52
0.04 0.04 0.04 0.02 0.01 0.01 0.01 0.01 0.01 0.00 0.00 0.00 0.00 0.00 0.00 0.00 0.00 0.00 0.00 0.00 0.00 0.01 0.03 0.04 0.05 0.07 0.10 0.14 0.20 0.22 0.23 0.23 0.26 0.31 0.37 0.44 0.48 0.46 0.48 0.52 0.56 0.58 0.55 0.51
0.02 0.03 0.03 0.01 0.00 0.00 0.00 0.00 0.00 0.00 0.00 0.00 0.00 0.00 0.00 0.00 0.00 0.00 0.00 0.01 0.02 0.04 0.06 0.06 0.06 0.06 0.07 0.11 0.21 0.26 0.26 0.26 0.29 0.32 0.37 0.47 0.54 0.55 0.52 0.55 0.60 0.60 0.53 0.46
0.00 0.00 0.00 0.00 0.00 0.00 0.00 0.00 0.00 0.00 0.00 0.00 0.00 0.00 0.00 0.00 0.00 0.00 0.01 0.04 0.07 0.08 0.09 0.09 0.08 0.08 0.09 0.13 0.22 0.29 0.30 0.29 0.32 0.35 0.40 0.46 0.55 0.58 0.50 0.45 0.46 0.48 0.42 0.34
0.00 0.00 0.00 0.00 0.00 0.00 0.00 0.00 0.00 0.00 0.00 0.00 0.00 0.00 0.00 0.00 0.00 0.02 0.05 0.09 0.14 0.16 0.16 0.15 0.15 0.15 0.14 0.18 0.31 0.43 0.40 0.35 0.38 0.39 0.41 0.44 0.49 0.56 0.57 0.47 0.38 0.36 0.28 0.21
0.00 0.00 0.00 0.00 0.00 0.00 0.00 0.00 0.00 0.00 0.00 0.00 0.00 0.00 0.00 0.00 0.02 0.05 0.11 0.18 0.23 0.24 0.23 0.23 0.23 0.20 0.20 0.23 0.29 0.51 0.60 0.49 0.40 0.38 0.41 0.45 0.46 0.50 0.57 0.59 0.51 0.38 0.25 0.16
0.00 0.00 0.00 0.00 0.00 0.00 0.00 0.00 0.00 0.00 0.00 0.00 0.00 0.00 0.00 0.02 0.06 0.10 0.17 0.28 0.36 0.35 0.31 0.30 0.29 0.24 0.23 0.25 0.26 0.35 0.54 0.57 0.49 0.41 0.43 0.46 0.47 0.48 0.53 0.57 0.60 0.56 0.38 0.21
0.00 0.00 0.00 0.00 0.00 0.00 0.00 0.00 0.00 0.00 0.00 0.00 0.00 0.01 0.02 0.04 0.08 0.14 0.22 0.37 0.55 0.56 0.47 0.41 0.35 0.28 0.27 0.29 0.29 0.32 0.40 0.38 0.39 0.45 0.45 0.47 0.49 0.47 0.50 0.55 0.57 0.57 0.46 0.27
0.00 0.00 0.00 0.00 0.00 0.00 0.00 0.00 0.00 0.00 0.00 0.00 0.01 0.03 0.05 0.10 0.17 0.26 0.34 0.43 0.53 0.57 0.53 0.51 0.43 0.33 0.31 0.33 0.35 0.35 0.41 0.35 0.25 0.34 0.42 0.45 0.47 0.49 0.48 0.51 0.51 0.50 0.41 0.25
0.00 0.00 0.00 0.00 0.00 0.00 0.00 0.00 0.00 0.00 0.01 0.02 0.04 0.07 0.12 0.22 0.38 0.51 0.56 0.59 0.59 0.51 0.48 0.50 0.40 0.30 0.27 0.28 0.31 0.34 0.44 0.43 0.29 0.29 0.38 0.40 0.42 0.49 0.48 0.46 0.44 0.43 0.34 0.18
0.00 0.00 0.00 0.00 0.00 0.00 0.00 0.00 0.00 0.01 0.03 0.06 0.11 0.16 0.20 0.29 0.46 0.59 0.65 0.75 0.80 0.71 0.57 0.47 0.34 0.27 0.24 0.20 0.19 0.26 0.38 0.43 0.32 0.28 0.34 0.30 0.31 0.40 0.42 0.40 0.39 0.36 0.27 0.13
0.00 0.00 0.00 0.00 0.00 0.00 0.00 0.01 0.02 0.05 0.07 0.13 0.21 0.27 0.32 0.38 0.49 0.60 0.62 0.68 0.80 0.82 0.68 0.49 0.32 0.24 0.20 0.15 0.14 0.22 0.32 0.39 0.31 0.22 0.24 0.26 0.28 0.31 0.33 0.33 0.30 0.26 0.18 0.09
0.00 0.00 0.00 0.00 0.00 0.00 0.01 0.02 0.06 0.10 0.12 0.18 0.28 0.36 0.44 0.44 0.45 0.54 0.67 0.73 0.68 0.72 0.69 0.57 0.38 0.23 0.15 0.13 0.14 0.23 0.33 0.38 0.30 0.20 0.18 0.20 0.22 0.25 0.26 0.23 0.21 0.17 0.10 0.06
0.00 0.00 0.00 0.00 0.00 0.00 0.01 0.03 0.06 0.10 0.15 0.25 0.33 0.39 0.48 0.47 0.47 0.47 0.50 0.62 0.65 0.72 0.68 0.61 0.48 0.30 0.17 0.12 0.14 0.19 0.28 0.33 0.28 0.18 0.13 0.14 0.17 0.20 0.18 0.16 0.14 0.09 0.04 0.03
0.00 0.00 0.00 0.00 0.00 0.00 0.01 0.02 0.03 0.07 0.18 0.31 0.37 0.44 0.50 0.46 0.50 0.60 0.55 0.45 0.49 0.60 0.53 0.47 0.45 0.35 0.21 0.14 0.12 0.15 0.24 0.32 0.30 0.18 0.12 0.12 0.13 0.13 0.12 0.10 0.07 0.04 0.03 0.03
0.00 0.00 0.00 0.00 0.00 0.00 0.02 0.03 0.02 0.05 0.17 0.28 0.29 0.35 0.40 0.40 0.41 0.43 0.44 0.41 0.43 0.48 0.40 0.35 0.34 0.32 0.29 0.23 0.18 0.18 0.24 0.30 0.27 0.18 0.11 0.10 0.10 0.09 0.08 0.06 0.04 0.03 0.04 0.03
0.00 0.00 0.00 0.00 0.01 0.02 0.04 0.04 0.03 0.06 0.19 0.32 0.27 0.28 0.28 0.30 0.38 0.38 0.34 0.30 0.33 0.37 0.33 0.30 0.27 0.26 0.25 0.28 0.28 0.25 0.23 0.22 0.20 0.14 0.10 0.09 0.08 0.07 0.06 0.04 0.04 0.03 0.03 0.02
0.00 0.00 0.00 0.00 0.02 0.03 0.04 0.04 0.04 0.06 0.22 0.43 0.39 0.31 0.25 0.21 0.21 0.25 0.28 0.27 0.28 0.33 0.29 0.24 0.20 0.21 0.23 0.29 0.31 0.25 0.19 0.17 0.15 0.14 0.12 0.12 0.11 0.09 0.07 0.05 0.04 0.03 0.02 0.02
0.00 0.00 0.00 0.00 0.00 0.01 0.02 0.03 0.03 0.05 0.18 0.43 0.48 0.32 0.21 0.16 0.16 0.20 0.26 0.28 0.27 0.26 0.23 0.18 0.14 0.13 0.16 0.19 0.19 0.17 0.15 0.14 0.15 0.15 0.15 0.12 0.09 0.07 0.06 0.04 0.02 0.01 0.01 0.01